Location: Izdebno
(52.6670°N, 16.2170°E)
Time: 10:45:14
(UTC+01:00)

A-11 Canister half - Visible Passes

Search period start: 28 January 2023 00:00
Search period end: 07 February 2023 00:00
Orbit: 1514 x 1685 km, 47.2° (Epoch: 26 January)

Date Brightness Start Highest point End Pass type
(mag) Time Alt. Az. Time Alt. Az. Time Alt. Az.
28 Jan 9.9 17:52:38 10° W 18:01:13 44° SSW 18:09:44 10° SE visible
28 Jan 10.9 19:58:34 10° W 20:04:08 18° SW 20:09:43 10° SSW visible
29 Jan 10.0 17:29:41 10° W 17:38:21 45° SSW 17:46:56 10° SE visible
29 Jan 10.9 19:35:27 10° W 19:41:20 19° SW 19:47:14 10° S visible
30 Jan 10.0 17:06:45 10° W 17:15:30 47° SSW 17:24:08 10° SE visible
30 Jan 10.9 19:12:22 10° W 19:18:33 20° SW 19:24:44 10° S visible
31 Jan 10.9 18:49:17 10° W 18:55:45 22° SW 19:02:11 10° S visible
01 Feb 11.0 18:26:14 10° W 18:32:56 23° SW 18:39:37 10° S visible
02 Feb 11.0 18:03:12 10° W 18:10:08 24° SW 18:17:01 10° S visible
03 Feb 11.0 17:40:10 10° W 17:47:19 26° SW 17:54:25 10° S visible
04 Feb 11.0 17:17:09 10° W 17:24:30 27° SW 17:31:47 10° S visible
